TimeCST,TemperatureF,Dew PointF,Humidity,Sea Level PressureIn,VisibilityMPH,Wind Direction,Wind SpeedMPH,Gust SpeedMPH,PrecipitationIn,Events,Conditions,WindDirDegrees,DateUTC
12:14 AM,8.6,6.8,92,29.56,1.2,Calm,Calm,-,N/A,Snow,Light Snow,0,2013-01-12 06:14:00
12:34 AM,8.6,6.8,92,29.57,1.5,Calm,Calm,-,N/A,Snow,Light Snow,0,2013-01-12 06:34:00
12:54 AM,8.6,6.8,92,29.57,1.8,Calm,Calm,-,N/A,Snow,Light Snow,0,2013-01-12 06:54:00
1:14 AM,8.6,5.0,85,29.58,2.0,Calm,Calm,-,N/A,Snow,Light Snow,0,2013-01-12 07:14:00
1:34 AM,8.6,5.0,85,29.59,2.0,Calm,Calm,-,N/A,Snow,Light Snow,0,2013-01-12 07:34:00
1:55 AM,8.6,5.0,85,29.59,1.5,Calm,Calm,-,N/A,Snow,Light Snow,0,2013-01-12 07:55:00
2:14 AM,8.6,5.0,85,29.60,1.8,Calm,Calm,-,N/A,Snow,Light Snow,0,2013-01-12 08:14:00
2:34 AM,8.6,5.0,85,29.62,1.2,Calm,Calm,-,N/A,Snow,Light Snow,0,2013-01-12 08:34:00
2:55 AM,6.8,5.0,92,29.62,1.5,Calm,Calm,-,N/A,Snow,Light Snow,0,2013-01-12 08:55:00
3:14 AM,6.8,3.2,85,29.63,1.0,Calm,Calm,-,N/A,Snow,Light Snow,0,2013-01-12 09:14:00
3:34 AM,6.8,3.2,85,29.64,1.0,Calm,Calm,-,N/A,Snow,Light Snow,0,2013-01-12 09:34:00
3:55 AM,6.8,3.2,85,29.64,1.2,Calm,Calm,-,N/A,Snow,Light Snow,0,2013-01-12 09:55:00
4:14 AM,5.0,1.4,85,29.64,1.0,Calm,Calm,-,N/A,Snow,Light Snow,0,2013-01-12 10:14:00
4:34 AM,5.0,1.4,85,29.67,1.0,Calm,Calm,-,N/A,Snow,Light Snow,0,2013-01-12 10:34:00
4:55 AM,5.0,1.4,85,29.67,1.0,Calm,Calm,-,N/A,Snow,Light Snow,0,2013-01-12 10:55:00
5:14 AM,3.2,-0.4,85,29.68,0.8,Calm,Calm,-,N/A,Snow,Light Snow,0,2013-01-12 11:14:00
5:34 AM,3.2,-0.4,85,29.70,0.8,Calm,Calm,-,N/A,Snow,Light Snow,0,2013-01-12 11:34:00
5:54 AM,3.2,-0.4,85,29.72,0.8,Calm,Calm,-,N/A,Snow,Snow,0,2013-01-12 11:54:00
6:14 AM,1.4,-2.2,85,29.73,0.8,Calm,Calm,-,N/A,Snow,Snow,0,2013-01-12 12:14:00
6:34 AM,1.4,-2.2,85,29.75,0.8,Calm,Calm,-,N/A,Snow,Light Snow,0,2013-01-12 12:34:00
6:54 AM,1.4,-2.2,85,29.76,0.5,Calm,Calm,-,N/A,Snow,Snow,0,2013-01-12 12:54:00
7:14 AM,1.4,-2.2,85,29.79,0.5,Calm,Calm,-,N/A,Snow,Snow,0,2013-01-12 13:14:00
7:34 AM,1.4,-2.2,85,29.80,0.8,Calm,Calm,-,N/A,Snow,Light Snow,0,2013-01-12 13:34:00
7:54 AM,1.4,-2.2,85,29.81,0.8,Calm,Calm,-,N/A,Snow,Snow,0,2013-01-12 13:54:00
8:14 AM,1.4,-2.2,85,29.82,0.5,Calm,Calm,-,N/A,Snow,Light Snow,0,2013-01-12 14:14:00
8:34 AM,1.4,-2.2,85,29.83,0.5,Calm,Calm,-,N/A,Snow,Light Snow,0,2013-01-12 14:34:00
8:54 AM,-0.4,-4.0,85,29.84,0.5,Calm,Calm,-,N/A,Snow,Light Snow,0,2013-01-12 14:54:00
9:14 AM,-0.4,-4.0,85,29.85,0.5,Calm,Calm,-,N/A,Snow,Light Snow,0,2013-01-12 15:14:00
9:34 AM,-0.4,-4.0,85,29.87,0.5,Calm,Calm,-,N/A,Snow,Light Snow,0,2013-01-12 15:34:00
9:54 AM,-2.2,-5.8,85,29.88,0.5,Calm,Calm,-,N/A,Fog,Light Freezing Fog,0,2013-01-12 15:54:00
10:14 AM,-0.4,-5.8,78,29.89,-9999.0,Calm,Calm,-,N/A,,Unknown,0,2013-01-12 16:14:00
10:34 AM,-9999,-9999,N/A,29.89,-9999.0,Calm,Calm,-,N/A,,Unknown,0,2013-01-12 16:34:00
10:54 AM,-0.4,-5.8,78,29.89,-9999.0,Calm,Calm,-,N/A,,Overcast,0,2013-01-12 16:54:00
11:14 AM,-0.4,-5.8,78,29.90,-9999.0,Calm,Calm,-,N/A,,Overcast,0,2013-01-12 17:14:00
11:54 AM,-2.2,-5.8,85,29.92,-9999.0,Calm,Calm,-,N/A,,Overcast,0,2013-01-12 17:54:00
12:14 PM,-2.2,-5.8,85,29.94,-9999.0,Calm,Calm,-,N/A,,Overcast,0,2013-01-12 18:14:00
12:35 PM,-2.2,-7.6,78,29.95,-9999.0,Calm,Calm,-,N/A,,Overcast,0,2013-01-12 18:35:00
12:54 PM,-2.2,-7.6,78,29.95,-9999.0,Calm,Calm,-,N/A,,Overcast,0,2013-01-12 18:54:00
1:14 PM,-2.2,-7.6,78,29.96,-9999.0,Calm,Calm,-,N/A,,Overcast,0,2013-01-12 19:14:00
1:35 PM,-2.2,-7.6,78,29.97,-9999.0,Calm,Calm,-,N/A,,Overcast,0,2013-01-12 19:35:00
1:54 PM,-4.0,-9.4,78,29.99,-9999.0,Calm,Calm,-,N/A,,Overcast,0,2013-01-12 19:54:00
2:14 PM,-4.0,-7.6,85,29.99,-9999.0,Calm,Calm,-,N/A,,Overcast,0,2013-01-12 20:14:00
2:34 PM,-4.0,-7.6,85,30.01,-9999.0,Calm,Calm,-,N/A,,Overcast,0,2013-01-12 20:34:00
2:54 PM,-4.0,-9.4,78,30.02,-9999.0,Calm,Calm,-,N/A,,Overcast,0,2013-01-12 20:54:00
3:14 PM,-4.0,-9.4,78,30.03,-9999.0,Calm,Calm,-,N/A,,Overcast,0,2013-01-12 21:14:00
3:34 PM,-4.0,-9.4,78,30.05,-9999.0,Calm,Calm,-,N/A,,Mostly Cloudy,0,2013-01-12 21:34:00
3:55 PM,-5.8,-9.4,84,30.06,-9999.0,Calm,Calm,-,N/A,,Mostly Cloudy,0,2013-01-12 21:55:00
4:14 PM,-5.8,-9.4,84,30.06,-9999.0,Calm,Calm,-,N/A,,Scattered Clouds,0,2013-01-12 22:14:00
4:34 PM,-5.8,-9.4,84,30.06,-9999.0,Calm,Calm,-,N/A,,Scattered Clouds,0,2013-01-12 22:34:00
4:54 PM,-5.8,-9.4,84,30.07,-9999.0,Calm,Calm,-,N/A,,Scattered Clouds,0,2013-01-12 22:54:00
5:14 PM,-5.8,-9.4,84,30.07,-9999.0,Calm,Calm,-,N/A,,Unknown,0,2013-01-12 23:14:00
5:34 PM,-5.8,-9.4,84,30.08,-9999.0,Calm,Calm,-,N/A,,Scattered Clouds,0,2013-01-12 23:34:00
5:54 PM,-5.8,-9.4,84,30.08,-9999.0,Calm,Calm,-,N/A,,Clear,0,2013-01-12 23:54:00
6:14 PM,-5.8,-9.4,84,30.09,10.0,Calm,Calm,-,N/A,,Clear,0,2013-01-13 00:14:00
6:34 PM,-5.8,-9.4,84,30.10,10.0,Calm,Calm,-,N/A,,Clear,0,2013-01-13 00:34:00
7:14 PM,-5.8,-9.4,84,30.11,10.0,Calm,Calm,-,N/A,,Clear,0,2013-01-13 01:14:00
7:34 PM,-5.8,-11.2,77,30.12,10.0,Calm,Calm,-,N/A,,Clear,0,2013-01-13 01:34:00
7:54 PM,-7.6,-11.2,84,30.12,10.0,Calm,Calm,-,N/A,,Clear,0,2013-01-13 01:54:00
8:14 PM,-7.6,-11.2,84,30.12,10.0,Calm,Calm,-,N/A,,Clear,0,2013-01-13 02:14:00
8:34 PM,-7.6,-13.0,77,30.12,10.0,Calm,Calm,-,N/A,,Clear,0,2013-01-13 02:34:00
8:54 PM,-7.6,-13.0,77,30.13,10.0,Calm,Calm,-,N/A,,Clear,0,2013-01-13 02:54:00
9:14 PM,-9.4,-14.8,77,30.13,10.0,Calm,Calm,-,N/A,,Clear,0,2013-01-13 03:14:00
9:34 PM,-9.4,-14.8,77,30.13,10.0,Calm,Calm,-,N/A,,Clear,0,2013-01-13 03:34:00
9:54 PM,-9.4,-14.8,77,30.13,10.0,Calm,Calm,-,N/A,,Clear,0,2013-01-13 03:54:00
10:14 PM,-9.4,-14.8,77,30.14,10.0,Calm,Calm,-,N/A,,Clear,0,2013-01-13 04:14:00
10:34 PM,-9.4,-14.8,77,30.14,10.0,Calm,Calm,-,N/A,,Clear,0,2013-01-13 04:34:00
10:54 PM,-9.4,-14.8,77,30.14,10.0,Calm,Calm,-,N/A,,Clear,0,2013-01-13 04:54:00
11:14 PM,-11.2,-14.8,84,30.15,10.0,Calm,Calm,-,N/A,,Clear,0,2013-01-13 05:14:00
11:34 PM,-9.4,-14.8,77,30.16,10.0,Calm,Calm,-,N/A,,Clear,0,2013-01-13 05:34:00
11:54 PM,-11.2,-14.8,84,30.16,10.0,Calm,Calm,-,N/A,,Clear,0,2013-01-13 05:54:00